| time (UTC) | temp F | wind direction | speed MPH | gust MPH | rain 1hr in | rain 24hr in | rain mn in | humidity % | barometer mb |
| 20260505070020 | 41 | 360 | 1.0 | 8.0 | 0.00 | 0.00 | 0.00 | 70 | 1001.3 |
| 20260505064527 | 41 | 360 | 1.0 | 12.0 | 0.00 | 0.00 | 0.00 | 70 | 1001.1 |
| 20260505063013 | 41 | 360 | 2.0 | 9.0 | 0.00 | 0.00 | 0.00 | 70 | 1001.0 |
| 20260505061513 | 41 | 360 | 2.0 | 9.0 | 0.00 | 0.00 | 0.00 | 69 | 1000.9 |
| 20260505060018 | 42 | 360 | 1.0 | 10.0 | 0.00 | 0.00 | 0.00 | 69 | 1000.7 |
| 20260505054527 | 42 | 360 | 5.0 | 14.0 | 0.00 | 0.00 | 0.00 | 68 | 1000.5 |
| 20260505053005 | 42 | 360 | 4.0 | 13.0 | 0.00 | 0.00 | 0.00 | 68 | 1000.0 |
| 20260505051509 | 42 | 360 | 4.0 | 13.0 | 0.00 | 0.00 | 0.00 | 67 | 1000.0 |
| 20260505041511 | 44 | 360 | 1.0 | 14.0 | 0.00 | 0.00 | 0.00 | 63 | 998.9 |
| 20260505040015 | 44 | 360 | 4.0 | 11.0 | 0.00 | 0.00 | 0.00 | 62 | 998.7 |
| 20260505034515 | 44 | 360 | 4.0 | 15.0 | 0.00 | 0.00 | 0.00 | 60 | 998.6 |
| 20260505033027 | 44 | 360 | 2.0 | 12.0 | 0.00 | 0.00 | 0.00 | 59 | 998.4 |
| 20260505031526 | 45 | 360 | 7.0 | 16.0 | 0.00 | 0.00 | 0.00 | 59 | 998.3 |
| 20260505030021 | 45 | 360 | 2.0 | 12.0 | 0.00 | 0.00 | 0.00 | 58 | 998.1 |
| 20260505024512 | 45 | 360 | 4.0 | 12.0 | 0.00 | 0.00 | 0.00 | 58 | 997.9 |
| 20260505023019 | 45 | 360 | 4.0 | 11.0 | 0.00 | 0.00 | 0.00 | 58 | 997.9 |
| 20260505021526 | 46 | 360 | 2.0 | 11.0 | 0.00 | 0.00 | 0.00 | 57 | 997.8 |
| 20260505020024 | 46 | 360 | 5.0 | 25.0 | 0.00 | 0.00 | 0.00 | 56 | 997.5 |
| 20260505014508 | 47 | 360 | 7.0 | 21.0 | 0.00 | 0.00 | 0.00 | 55 | 997.2 |
| 20260505013012 | 47 | 360 | 4.0 | 16.0 | 0.00 | 0.00 | 0.00 | 55 | 996.9 |
| 20260505011517 | 48 | 360 | 6.0 | 17.0 | 0.00 | 0.00 | 0.00 | 53 | 996.7 |
| 20260505010023 | 48 | 360 | 8.0 | 21.0 | 0.00 | 0.00 | 0.00 | 52 | 996.4 |
| 20260505004525 | 49 | 360 | 5.0 | 14.0 | 0.00 | 0.00 | 0.00 | 51 | 996.1 |
| 20260505003011 | 50 | 360 | 5.0 | 13.0 | 0.00 | 0.00 | 0.00 | 50 | 996.1 |
| 20260505001518 | 51 | 360 | 5.0 | 20.0 | 0.00 | 0.00 | 0.00 | 49 | 995.8 |
| 20260505000020 | 52 | 359 | 7.0 | 16.0 | 0.00 | 0.00 | 0.00 | 46 | 995.7 |
| 20260504234525 | 53 | 352 | 8.0 | 20.0 | 0.00 | 0.00 | 0.00 | 43 | 995.4 |
| 20260504233028 | 53 | 290 | 4.0 | 20.0 | 0.00 | 0.00 | 0.00 | 44 | 995.2 |
| 20260504231510 | 54 | 289 | 7.0 | 22.0 | 0.00 | 0.00 | 0.00 | 43 | 995.1 |
| 20260504230018 | 55 | 302 | 4.0 | 18.0 | 0.00 | 0.00 | 0.00 | 43 | 995.0 |
| 20260504224523 | 55 | 27 | 9.0 | 21.0 | 0.00 | 0.00 | 0.00 | 42 | 995.0 |
| 20260504223026 | 56 | 360 | 4.0 | 20.0 | 0.00 | 0.00 | 0.00 | 42 | 994.6 |
| 20260504221528 | 57 | 321 | 7.0 | 15.0 | 0.00 | 0.00 | 0.00 | 43 | 994.4 |
| 20260504220021 | 58 | 258 | 7.0 | 17.0 | 0.00 | 0.00 | 0.00 | 42 | 994.2 |
| 20260504214519 | 58 | 278 | 4.0 | 17.0 | 0.00 | 0.00 | 0.00 | 42 | 993.9 |
| 20260504213023 | 58 | 338 | 5.0 | 17.0 | 0.00 | 0.00 | 0.00 | 43 | 993.6 |
| 20260504211507 | 59 | 325 | 8.0 | 18.0 | 0.00 | 0.00 | 0.00 | 43 | 993.6 |
| 20260504210012 | 59 | 359 | 4.0 | 15.0 | 0.00 | 0.00 | 0.00 | 44 | 993.3 |
| 20260504204515 | 60 | 285 | 7.0 | 20.0 | 0.00 | 0.00 | 0.00 | 44 | 993.1 |
| 20260504203024 | 62 | 276 | 6.0 | 20.0 | 0.00 | 0.00 | 0.00 | 44 | 992.8 |
| 20260504201525 | 63 | 286 | 6.0 | 14.0 | 0.00 | 0.00 | 0.00 | 41 | 992.5 |
| 20260504200014 | 64 | 250 | 6.0 | 17.0 | 0.00 | 0.00 | 0.00 | 40 | 992.4 |
| 20260504194512 | 63 | 288 | 6.0 | 16.0 | 0.00 | 0.00 | 0.00 | 42 | 992.2 |
| 20260504193020 | 64 | 307 | 4.0 | 22.0 | 0.00 | 0.00 | 0.00 | 43 | 992.0 |
| 20260504191536 | 63 | 299 | 3.0 | 17.0 | 0.00 | 0.00 | 0.00 | 43 | 992.3 |
| 20260504190004 | 64 | 324 | 5.0 | 14.0 | 0.00 | 0.00 | 0.00 | 42 | 992.1 |
| 20260504184514 | 64 | 330 | 4.0 | 17.0 | 0.00 | 0.00 | 0.00 | 44 | 992.1 |
| 20260504183033 | 63 | 271 | 4.0 | 15.0 | 0.00 | 0.00 | 0.00 | 47 | 992.0 |
| 20260504181525 | 61 | 313 | 6.0 | 15.0 | 0.00 | 0.00 | 0.00 | 50 | 991.8 |
| 20260504180026 | 60 | 330 | 6.0 | 18.0 | 0.00 | 0.00 | 0.00 | 48 | 992.0 |
| 20260504174507 | 61 | 290 | 8.0 | 20.0 | 0.00 | 0.00 | 0.00 | 47 | 992.1 |
| 20260504173011 | 61 | 291 | 7.0 | 18.0 | 0.00 | 0.00 | 0.00 | 50 | 991.9 |
| 20260504171520 | 60 | 314 | 3.0 | 18.0 | 0.00 | 0.00 | 0.00 | 52 | 991.7 |
| 20260504081515 | 51 | 195 | 4.0 | 12.0 | 0.00 | 0.04 | 0.00 | 58 | 996.1 |